This is the latest recevied weather packets stored in our database for station/object W2JBO-5. If no packets are shown the sender has not sent any weather packets the latest 10 day(s).
| Time | Temp. | Humidity | Pressure | Rain* | Wind** | Luminosity | Snow |
|---|---|---|---|---|---|---|---|
| 1777526978 | 19.44° C | 99% | 1013.5 hPa | 0 mm | - | 0 W/m² | - |
| 1777526674 | 19.44° C | 99% | 1013.8 hPa | 0 mm | - | 0 W/m² | - |
| 1777526370 | 19.44° C | 99% | 1013.5 hPa | 0 mm | - | 0 W/m² | - |
| 1777526065 | 19.44° C | 99% | 1013.5 hPa | 0 mm | - | 0 W/m² | - |
| 1777525762 | 19.44° C | 99% | 1013 hPa | 0 mm | - | 0 W/m² | - |
| 1777525459 | 19.44° C | 99% | 1013.2 hPa | 0 mm | - | 0 W/m² | - |
| 1777525155 | 19.44° C | 99% | 1013.2 hPa | 0 mm | - | 0 W/m² | - |
| 1777524852 | 19.44° C | 99% | 1013.2 hPa | 0 mm | - | 0 W/m² | - |
| 1777524550 | 19.44° C | 99% | 1013.2 hPa | 0 mm | - | 0 W/m² | - |
| 1777524247 | 19.44° C | 99% | 1013.3 hPa | 0 mm | - | 0 W/m² | - |
| 1777523943 | 19.44° C | 99% | 1013.7 hPa | 0 mm | - | 0 W/m² | - |
| 1777523639 | 19.44° C | 99% | 1013.7 hPa | 0 mm | - | 0 W/m² | - |
| 1777523335 | 19.44° C | 99% | 1014 hPa | 1.78 mm | - | 0 W/m² | - |
| 1777523031 | 20° C | 99% | 1014.2 hPa | 1.78 mm | - | 0 W/m² | - |
| 1777522729 | 20° C | 99% | 1014 hPa | 0 mm | - | 0 W/m² | - |
| 1777522425 | 20° C | 99% | 1014.5 hPa | 0 mm | - | 0 W/m² | - |
| 1777522123 | 20° C | 99% | 1014.3 hPa | 1.27 mm | - | 0 W/m² | - |
| 1777521819 | 20° C | 99% | 1014.3 hPa | 4.32 mm | - | 0 W/m² | - |
| 1777521515 | 20° C | 99% | 1014.3 hPa | 6.1 mm | - | 0 W/m² | - |
| 1777521212 | 20° C | 99% | - | 4.83 mm | - | - | - |
| 1777520910 | 20° C | 99% | - | 6.6 mm | - | - | - |
| 1777520607 | 20° C | 99% | - | 7.11 mm | - | - | - |
| 1777520303 | 20° C | 99% | - | 4.83 mm | - | - | - |
| 1777520002 | 20° C | 99% | - | 3.05 mm | - | - | - |
| 1777519698 | 20° C | 99% | - | 4.32 mm | - | - | - |
* Rain latest hour (hover to see other rain measurements)
** Current wind speed in m/s (hover to see current wind gust speed)